AO-07 1 07530U 74089B 18032.91039634 -.00000053 00000-0 -51333-4 0 9991 2 07530 101.6680 2.3645 0011785 236.8809 190.1704 12.53630895977644 UO-11 1 14781U 84021B 18032.58281693 .00000047 00000-0 11989-4 0 9995 2 14781 097.6679 074.4478 0009006 158.9430 201.2156 14.82977417803341 LO-19 1 20442U 90005G 18032.39535109 -.00000006 00000-0 13968-4 0 9993 2 20442 098.5986 331.8144 0011538 185.7083 174.3971 14.32885435464383 HUBBLE 1 20580U 90037B 18032.14987734 .00000437 00000-0 15806-4 0 9999 2 20580 28.4696 294.3482 0002902 116.1199 35.1860 15.08972276324903 MET-2/21 1 22782U 93055A 18032.59234885 .00000010 00000-0 -48009-5 0 9999 2 22782 082.5481 201.5271 0023035 145.1286 284.0102 13.83806369233157 AO-27 1 22825U 93061C 18032.48200041 -.00000014 00000-0 12251-4 0 9992 2 22825 098.8456 006.2644 0008940 028.9119 331.2556 14.30020707269909 IO-26 1 22826U 93061D 18032.46025090 -.00000013 00000-0 12666-4 0 9999 2 22826 098.8397 006.2970 0009297 018.9746 341.1781 14.30351472270107 FO-29 1 24278U 96046B 18032.83767896 -.00000023 00000-0 92644-5 0 9992 2 24278 98.5298 250.1428 0351369 102.0390 262.0350 13.53081181 59935 NOAA-15 1 25338U 98030A 18032.61629369 .00000013 00000-0 24168-4 0 9996 2 25338 098.7764 048.9085 0009543 259.9872 100.0231 14.25837362025444 GO-32 1 25397U 98043D 18032.80870032 -.00000022 00000-0 94928-5 0 9994 2 25397 98.6368 335.5872 0002307 69.2592 290.8834 14.23638913 16467 ISS 1 25544U 98067A 18032.35680672 .00003091 00000-0 54092-4 0 9998 2 25544 051.6440 335.8519 0003109 060.6999 082.4185 15.54035772097393 NO-44 1 26931U 01043C 18032.57713313 -.00000037 00000-0 17587-4 0 9996 2 26931 067.0493 219.3230 0005460 279.9139 080.1346 14.30492588853087 SO-50 1 27607U 02058C 18032.65196564 -.00000037 00000-0 15357-4 0 9999 2 27607 64.5555 144.3032 0048853 1.5750 358.5496 14.75416219812963 CO-55 1 27844U 03031E 18032.58942891 .00000047 00000-0 40727-4 0 9997 2 27844 098.6888 043.2340 0010524 048.5370 311.6710 14.22091975756882 CO-57 1 27848U 03031J 18032.58152564 .00000026 00000-0 31895-4 0 9994 2 27848 098.6977 043.5769 0010559 057.7452 302.4747 14.21698964756769 RS-22 1 27939U 03042A 18032.83521837 .00000065 00000-0 20177-4 0 9992 2 27939 97.9680 175.6437 0012309 212.7530 275.5646 14.66653150766976 NOAA-18 1 28654U 05018A 18032.58563110 .00000020 00000-0 35967-4 0 9998 2 28654 099.1621 065.1665 0014959 145.6861 214.5279 14.12365406654549 CO-58 1 28895U 05043F 18032.42708030 .00000112 00000-0 30353-4 0 9994 2 28895 097.8880 189.5408 0017821 135.8421 224.4208 14.63503995653788 Falconsat-3 1 30776U 07006E 18032.46205142 .00002156 00000-0 65859-4 0 9995 2 30776 035.4367 050.3529 0003857 246.1465 113.8856 15.33842138603467 CO-65 1 32785U 08021C 18032.82462250 .00000183 00000-0 25490-4 0 9995 2 32785 97.5532 51.4270 0014400 123.9494 236.3094 14.88054625529048 AAUSAT2 1 32788U 08021F 18032.55415059 .00000632 00000-0 63950-4 0 9995 2 32788 097.5359 064.6188 0013407 084.7081 275.5669 14.94205324529824 DO-64 1 32789U 08021G 18032.69219976 .00001221 00000-0 88466-4 0 9995 2 32789 97.5314 90.8349 0013385 46.2101 314.0230 15.05718974531398 CO-66 1 32791U 08021J 18032.52852855 .00000322 00000-0 38390-4 0 9991 2 32791 097.5457 056.1756 0014912 108.5603 251.7237 14.90457457529224 RS-30 1 32953U 08025A 18032.58404841 .00000040 00000-0 21420-3 0 9991 2 32953 082.5021 097.0206 0020145 143.7547 216.4902 12.43081287439926 PRISM 1 33493U 09002B 18032.73714177 .00001117 00000-0 10484-3 0 9994 2 33493 98.1447 289.5352 0016925 47.5484 312.7163 14.96065013490096 NOAA-19 1 33591U 09005A 18032.53866805 .00000054 00000-0 54776-4 0 9992 2 33591 099.1255 007.9930 0013907 351.9591 008.1355 14.12250623463028 TISAT-1 1 36799U 10035E 18032.86622922 .00000247 00000-0 31283-4 0 9998 2 36799 98.0858 165.6821 0011114 294.8520 65.1541 14.90682175409997 JUGNU 1 37839U 11058B 18032.51296014 .00000303 00000-0 19702-4 0 9996 2 37839 019.9608 139.9432 0018792 191.0253 260.0497 14.12608006326056 SRMSAT 1 37841U 11058D 18032.46801584 .00000284 00000-0 11065-4 0 9999 2 37841 019.9706 186.6226 0011888 079.4325 315.2223 14.10597265325608 AO-71 1 37854U 11061E 18032.54860263 .00000804 00000-0 50074-4 0 9996 2 37854 101.7112 028.0261 0164831 115.5818 246.2533 15.05042696340979 HRBE 1 37855U 11061F 18032.58306233 .00001063 00000-0 62469-4 0 9992 2 37855 101.7241 025.7252 0177812 123.4163 238.4196 15.04016480340790 ALMASAT-1 1 38078U 12006B 18032.82482116 .00012434 38209-5 12268-3 0 9994 2 38078 69.4319 229.2727 0267889 309.3549 143.4652 15.33894291319850 HORYU-2 1 38340U 12025D 18032.58387846 .00000173 00000-0 33520-4 0 9999 2 38340 098.3743 049.5912 0010386 283.9334 076.0718 14.75492374296703 RS-40 1 38735U 12041C 18032.52313687 .00000004 00000-0 -44702-4 0 9999 2 38735 082.4766 181.1969 0016386 247.4734 112.4611 12.42576411250153 BEESAT-3 1 39134U 13015E 18032.57305346 .00001225 00000-0 67840-4 0 9996 2 39134 064.8630 205.4653 0027440 228.6700 131.2066 15.18765501263926 BEESAT-2 1 39136U 13015G 18032.62827777 .00000687 00000-0 45747-4 0 9994 2 39136 064.8683 219.3349 0029844 252.0320 107.7551 15.15835387263655 ZACUBE-1 1 39417U 13066B 18032.57087530 .00000171 00000-0 28208-4 0 9992 2 39417 097.6032 068.3416 0057958 238.5194 121.0347 14.80868378226727 TRITON-1 1 39427U 13066M 18032.55781237 .00000140 00000-0 30570-4 0 9997 2 39427 097.6372 037.5155 0113527 334.6080 024.9572 14.67605346224492 GOMX-1 1 39430U 13066Q 18032.86051681 .00000227 00000-0 49855-4 0 9990 2 39430 97.6833 19.5983 0152618 38.1809 323.0086 14.59015274223427 LO-74 1 39440U 13066AA 18032.59106679 .00000157 00000-0 29224-4 0 9999 2 39440 097.6101 055.8261 0079129 275.9500 083.2696 14.75605873224726 AO-73 1 39444U 13066AE 18032.63731429 .00000201 00000-0 31363-4 0 9992 2 39444 97.6044 69.7566 0057211 234.1083 125.4812 14.81632172225582 SPROUT 1 39770U 14029E 18032.84592607 .00000451 00000-0 56998-4 0 9998 2 39770 97.8736 135.0883 0007502 297.7649 62.2809 14.86651127200251 DUCHIFAT-1 1 40021U 14033M 18032.76319260 .00000335 00000-0 40474-4 0 9990 2 40021 97.9180 311.2390 0011549 265.3381 94.6518 14.90185492196787 NANOSATCBR1 1 40024U 14033Q 18032.73803710 .00000226 00000-0 29726-4 0 9994 2 40024 97.9124 309.7150 0010885 267.1804 92.8168 14.89466123196711 EO-79 1 40025U 14033R 18032.70893196 .00000252 00000-0 33108-4 0 9997 2 40025 97.9093 308.3639 0011125 271.6552 88.3391 14.88627458196630 DTUSAT-2 1 40030U 14033W 18032.70576280 .00000232 00000-0 31222-4 0 9998 2 40030 97.9049 307.2232 0010539 265.8321 94.1691 14.88241224196586 EO-80 1 40032U 14033Y 18032.75792299 .00000224 00000-0 30378-4 0 9997 2 40032 97.9055 307.2794 0010481 266.1764 93.8254 14.88177137196581 ANTELSAT 1 40034U 14033AA 18032.63024570 .00000180 00000-0 34560-4 0 9994 2 40034 97.8306 274.0600 0057576 274.9027 84.5609 14.73855537194718 VELOX-1 1 40057U 14034E 18032.71736225 .00000243 00000-0 41845-4 0 9990 2 40057 98.1938 141.5294 0012033 49.2026 311.0233 14.77333962193645 DAURIA DX 1 1 40071U 14037C 18032.83396301 .00000095 00000-0 19710-4 0 9990 2 40071 98.3552 158.3292 0009528 43.7346 316.4625 14.81117725192968 UKUBE-1 1 40074U 14037F 18032.80529484 .00000252 00000-0 37653-4 0 9991 2 40074 98.3670 163.4029 0005436 48.4419 311.7269 14.83709970193227 HODOYOSHI-1 1 40299U 14070B 18032.83191133 .00000389 00000-0 19662-4 0 9997 2 40299 97.3877 116.9599 0013550 15.4698 80.2554 15.22711660179882 CHUBUSAT-1 1 40300U 14070C 18032.87192833 .00000546 00000-0 27325-4 0 9992 2 40300 97.3772 113.4017 0021166 22.3153 69.4133 15.21366252179706 QSAT-EOS 1 40301U 14070D 18032.72065684 .00001203 00000-0 51711-4 0 9997 2 40301 97.3710 114.0262 0027295 14.2273 103.9804 15.24288915179789 FIREBIRD FU3 1 40377U 15003B 18032.56866123 .00001877 00000-0 81419-4 0 9991 2 40377 099.1041 267.3573 0132252 321.8898 037.3031 15.16651106165757 FIREBIRD FU4 1 40378U 15003C 18032.62441650 .00001829 00000-0 79390-4 0 9995 2 40378 099.1043 267.4752 0132461 321.5957 037.5897 15.16663056165765 GRIFEX 1 40379U 15003D 18032.86935477 .00001271 00000-0 60201-4 0 9999 2 40379 99.1078 264.5502 0139175 331.4345 27.9304 15.13915366165627 NO-84 1 40654U 15025D 18032.34173595 .00005825 00000-0 10183-3 0 02105 2 40654 054.9933 288.9012 0169022 124.0253 237.6911 15.38133044034920 NO-83 1 40655U 15025E 18032.08160367 .00015759 00000-0 19129-3 0 02421 2 40655 054.9765 247.4717 0125771 147.8150 213.0611 15.51831162035116 DEORBITSAIL 1 40719U 15032E 18032.70359886 .00000331 00000-0 54980-4 0 9999 2 40719 97.9599 288.3127 0017455 121.6086 238.6830 14.76318807138184 NUDT-PHONESAT 1 40900U 15049B 18032.58663099 .00001629 00000-0 77010-4 0 9999 2 40900 097.4426 042.4510 0014713 138.7891 221.4458 15.20729129131308 XW-2A 1 40903U 15049E 18032.78400909 .00001504 00000-0 39775-4 0 9991 2 40903 97.4004 66.2139 0015145 152.7445 207.4599 15.39953754132961 XW-2C 1 40906U 15049H 18032.79543377 .00000512 00000-0 30883-4 0 9991 2 40906 97.4584 38.7995 0016249 134.9265 225.3289 15.14996738130997 XW-2D 1 40907U 15049J 18032.82677833 .00000542 00000-0 32347-4 0 9991 2 40907 97.4556 38.5454 0015658 132.7283 227.5271 15.15133516131000 LILACSAT-2 1 40908U 15049K 18032.54156587 .00000288 00000-0 19736-4 0 9993 2 40908 097.4664 037.7945 0017240 134.5130 225.7514 15.13395198130853 XW-2F 1 40910U 15049M 18032.81161645 .00000826 00000-0 46067-4 0 9992 2 40910 97.4565 39.6026 0016471 129.6797 230.5892 15.16230693130940 XW-2B 1 40911U 15049N 18032.83951480 .00000532 00000-0 31867-4 0 9995 2 40911 97.4594 39.0420 0015562 133.1539 227.0997 15.15082991130907 DCBB 1 40912U 15049P 18032.74373265 .00001070 00000-0 55130-4 0 9992 2 40912 97.4504 42.0144 0017150 119.3372 327.4852 15.18413071131111 TW-1C 1 40926U 15051B 18032.83277553 .00005950 00000-0 11993-3 0 9992 2 40926 97.2026 75.8823 0012207 60.4289 354.3640 15.46856775132378 TW-1A 1 40928U 15051D 18032.45225075 .00002428 00000-0 67151-4 0 9999 2 40928 097.2021 069.0713 0014260 091.6549 015.5546 15.37882652131917 IO-86 1 40931U 15052B 18032.36058954 .00000757 00000-0 16439-4 0 9990 2 40931 005.9988 038.5755 0013181 249.6522 110.2637 14.76563983126893 LQSat 1 40958U 15057A 18032.85176369 -.00000027 00000-0 35901-5 0 9996 2 40958 97.9550 108.8798 0019504 53.5986 306.7011 14.73013290124925 AO-85 1 40967U 15058D 18032.52525861 .00000142 00000-0 34248-4 0 02246 2 40967 064.7746 243.0656 0192408 356.8555 003.1323 14.75632878033637 ATHENOXAT-1 1 41168U 15077C 18032.39069922 .00001756 00000-0 60067-4 0 9996 2 41168 14.9858 293.9283 0012053 314.9277 180.5824 15.12417676117789 ChubuSat-2 1 41338U 16012B 18032.55827192 .00000297 00000-0 16520-4 0 9998 2 41338 031.0037 095.3150 0013805 170.4189 189.6711 14.99912466107456 ChubuSat-3 1 41339U 16012C 18032.52263740 .00000284 00000-0 15390-4 0 9999 2 41339 31.0084 94.3346 0013744 177.8619 182.2077 15.00104358107434 Horyu-4 1 41340U 16012D 18032.52074671 .00000448 00000-0 27578-4 0 9997 2 41340 031.0057 090.1597 0014048 187.9786 172.0627 15.00872959107496 OUFTI-1 1 41458U 16025C 18032.42242081 .00002106 00000-0 11454-3 0 9990 2 41458 098.1562 087.9287 0170431 242.4613 115.9209 15.04208930097032 [email protected] 1 41459U 16025D 18032.53965935 .00001177 00000-0 66559-4 0 9997 2 41459 098.1565 087.9440 0170781 242.5858 115.7908 15.03976648097038 AAUSAT4 1 41460U 16025E 18032.70618086 .00001201 00000-0 67335-4 0 9991 2 41460 98.1475 88.4254 0162542 238.9790 119.5393 15.05222054 97104 LO-87 1 41557U 16033B 18032.75238528 .00001072 00000-0 41989-4 0 9994 2 41557 97.4457 117.1889 0012286 277.1655 82.8187 15.27956584 93476 NuSat2 1 41558U 16033C 18032.81077318 .00001025 00000-0 40504-4 0 9990 2 41558 97.4485 117.3260 0011726 275.5223 84.4679 15.27788090 93473 Lapan A3 1 41603U 16040E 18032.88139674 .00000163 00000-0 10892-4 0 9999 2 41603 97.4316 96.7255 0013462 1.8659 85.1640 15.19505287 89537 Swayam 1 41607U 16040J 18032.42486169 .00001207 00000-0 56158-4 0 9992 2 41607 097.4317 097.2114 0013774 001.5329 358.5947 15.21792284089455 Pratham 1 41783U 16059A 18032.43649861 .00000045 00000-0 18192-4 0 9993 2 41783 098.1372 096.0625 0034164 159.8706 200.3852 14.62897585072113 AlSat 1N 1 41789U 16059G 18032.71277441 .00000054 00000-0 19432-4 0 9999 2 41789 98.1373 97.2846 0029010 151.1182 209.1629 14.64123327 72190 ScatSat 1 41790U 16059H 18032.58989140 .00000012 00000-0 14211-4 0 9996 2 41790 098.2800 082.7015 0019001 144.4707 215.7758 14.50859165071525 TY-1 1 41844U 16066D 18032.53861778 .00001101 00000-0 49915-4 0 9994 2 41844 097.4057 041.3429 0016417 146.9698 327.9954 15.22837171068235 CAS-2T 1 41845U 16066E 18032.69510549 .00000058 00000-0 20401-4 0 9998 2 41845 98.7623 58.6565 0364922 287.0340 69.1161 14.37857255 64476 Pegasus-1 1 41846U 16066F 18032.78656127 .00000182 00000-0 39460-4 0 9995 2 41846 98.7672 58.3790 0367546 288.7635 67.4011 14.37251480 64459 STARS-C 1 41895U 98067KR 18032.55808560 .00189724 24911-4 51531-3 0 9998 2 41895 051.6309 298.2162 0005195 150.4912 209.6389 15.93795613064089 TO-89 1 41932U 98067KU 18032.79569950 .00019908 00000-0 17564-3 0 9996 2 41932 51.6389 314.3418 0004733 60.5789 299.5680 15.68692721 59469 AOBA-V3LOX3 1 41935U 98067KX 18032.40379705 .00025783 00000-0 21079-3 0 9998 2 41935 051.6380 314.6995 0004222 065.4051 294.7386 15.70370242059526 OSNSAT 1 41939U 98067KZ 18011.28402027 .11925055 12489-4 54124-3 0 9997 2 41939 051.6147 038.9582 0001091 231.1728 128.9202 16.43639489055773 EO-88 1 42017U 17008BX 18032.79273711 .00001210 00000-0 52904-4 0 9999 2 42017 97.4663 98.5701 0007819 128.2431 231.9511 15.23995585 53447 HAVELSAT 1 42700U 98067LH 18032.30785647 .00018154 00000-0 18911-3 0 9999 2 42700 051.6391 326.0660 0005788 099.4809 260.6841 15.64607736040703 SOMP2 1 42701U 98067LJ 18032.29664567 .00018468 00000-0 19654-3 0 9998 2 42701 051.6384 326.7411 0005750 099.0990 261.0655 15.64048881040688 Columbia 1 42702U 98067LK 18032.80971401 .00178215 00000-0 63615-3 0 9997 2 42702 51.6293 310.5018 0006230 136.1213 224.0287 15.87803828 40873 PHOENIX 1 42706U 98067LP 18032.28510349 .00015264 00000-0 16442-3 0 9993 2 42706 051.6387 326.6676 0002005 076.2909 283.8309 15.63914993040600 X-CubeSat 1 42707U 98067LQ 18032.25186638 .00019355 00000-0 20052-3 0 9998 2 42707 051.6366 326.4187 0002127 079.2070 280.9165 15.64708708040592 qbee 1 42708U 98067LR 18032.33811430 .00018271 00000-0 19233-3 0 9998 2 42708 051.6384 326.2565 0002148 077.9987 282.1249 15.64348216040564 ZA-AeroSat 1 42713U 98067LU 18032.27511517 .00015944 00000-0 17886-3 0 9996 2 42713 51.6378 328.0953 0002592 47.4780 312.6433 15.62829632 40243 LINK 1 42714U 98067LV 18032.25345017 .00030537 00000-0 27987-3 0 9993 2 42714 051.6353 324.9119 0002680 060.2200 299.9062 15.67485218040398 UPSat 1 42716U 98067LX 18032.41094082 .00024827 00000-0 23923-3 0 9997 2 42716 051.6377 324.4965 0004395 102.6998 257.4489 15.66355360040430 SpaceCube 1 42717U 98067LY 18032.29503785 .00018671 00000-0 19715-3 0 9993 2 42717 051.6377 326.7227 0004400 100.4796 259.6695 15.64246225039636 Hoopoe 1 42718U 98067LZ 18032.22372740 .00021852 00000-0 22031-3 0 9992 2 42718 051.6386 326.2480 0004392 098.3199 261.8294 15.65303756039639 Challenger 1 42721U 98067MA 18032.27608593 .00039793 00000-0 33619-3 0 9996 2 42721 51.6364 323.5611 0006501 87.8110 272.3631 15.69326909 39377 NJUST-1 1 42722U 98067MB 18032.84401613 .00013364 00000-0 15434-3 0 9995 2 42722 51.6387 325.8976 0007022 85.8033 274.3763 15.62229373 39393 UNSW-EC0 1 42723U 98067MC 18032.38495310 .00022431 00000-0 22470-3 0 9995 2 42723 51.6394 325.8365 0006580 84.6555 275.5191 15.65434982 39337 DUTHsat 1 42724U 98067MD 18032.38725339 .00035221 00000-0 30666-3 0 9990 2 42724 51.6369 323.5735 0005830 89.7525 270.4140 15.68657316 39289 LO-90 1 42725U 98067ME 18032.84734168 .00016047 00000-0 17604-3 0 9994 2 42725 51.6386 325.1712 0006086 88.0951 272.0741 15.63386931 39317 nSIGHT1 1 42726U 98067MF 18032.28665313 .00007371 00000-0 98266-4 0 9992 2 42726 51.6404 331.1947 0006559 86.6935 273.4808 15.59256997 39184 QBITO 1 42728U 98067MH 18032.26382424 .00018505 00000-0 19566-3 0 9997 2 42728 051.6405 327.3002 0003845 092.0579 268.0856 15.64221276039031 Aalto-2 1 42729U 98067MJ 18032.25898267 .00019278 00000-0 20273-3 0 9999 2 42729 51.6387 327.2439 0003798 91.7113 268.4317 15.64327048 39042 SUSat 1 42730U 98067MK 18032.23139622 .00018303 00000-0 19700-3 0 9993 2 42730 51.6383 327.8014 0003887 88.6428 271.5012 15.63774384 39021 i-INSPIRE II 1 42731U 98067ML 18032.03806288 .00025609 00000-0 25182-3 0 9999 2 42731 51.6376 327.2351 0006177 42.6500 317.4974 15.65817867 39065 PolyITAN-2-SAU 1 42732U 98067MM 18032.24206748 .00019669 00000-0 20494-3 0 9998 2 42732 51.6382 327.1078 0006389 40.6534 319.4937 15.64534990 39083 SNUSAT-1 1 42733U 98067MN 18032.23281946 .00018213 00000-0 19608-3 0 9990 2 42733 51.6384 327.8021 0006538 42.1763 317.9734 15.63758975 39075 ExAlta-1 1 42734U 98067MP 18032.42659489 .00025913 00000-0 25434-3 0 9992 2 42734 51.6364 325.3287 0007713 64.6727 295.5066 15.65844686 39072 Aoxiang-1 1 42735U 98067MQ 18032.82985539 .00013711 00000-0 15711-3 0 9995 2 42735 51.6380 325.7919 0007523 82.9359 277.2491 15.62402267 40523 BeEagleSat 1 42736U 98067MR 18032.40396680 .00017252 00000-0 19062-3 0 9990 2 42736 51.6378 327.4451 0007327 80.9430 279.2393 15.63131280 39156 Atlantis 1 42737U 98067MS 18032.62231484 .00103203 00000-0 51570-3 0 9997 2 42737 51.6284 315.2695 0006218 104.7578 255.4113 15.80998416 39229 CAS-4B 1 42759U 17034B 18032.59946980 .00000178 00000-0 24598-4 0 9994 2 42759 43.0180 107.5510 0008931 329.7051 139.9056 15.09178791 34965 CAS-4A 1 42761U 17034D 18032.58742714 .00000126 00000-0 21356-4 0 9997 2 42761 43.0185 107.4758 0009545 332.3611 134.0478 15.09253887 34953 UCLSat 1 42765U 17036A 18032.61269163 .00001009 00000-0 47906-4 0 9999 2 42765 097.4204 094.5402 0011835 183.9471 176.1674 15.21476440034684 NIUSat 1 42766U 17036B 18032.60791441 .00000822 00000-0 41155-4 0 9990 2 42766 097.4206 094.0988 0016372 172.7074 187.4402 15.20090502033938 LituanicaSAT 2 1 42768U 17036D 18032.61746500 .00001628 00000-0 76827-4 0 9998 2 42768 097.4213 094.2417 0016268 175.5002 184.6383 15.20783231033950 Aalto 1 1 42775U 17036L 18032.47538949 .00000716 00000-0 35833-4 0 9995 2 42775 097.4201 094.1148 0014506 173.0893 187.0545 15.20493252033878 URSA MAIOR 1 42776U 17036M 18032.59981478 .00000715 00000-0 35738-4 0 9991 2 42776 097.4206 094.2634 0014397 172.8946 187.2496 15.20557542033891 Max Valier Sat 1 42778U 17036P 18032.60483323 .00000761 00000-0 37373-4 0 9999 2 42778 097.4226 094.4577 0012905 177.4764 182.6539 15.21008565033899 Pegasus 1 42784U 17036V 18032.50258890 .00001080 00000-0 51309-4 0 9994 2 42784 097.4207 094.3891 0012356 184.7054 175.4068 15.21311215033881 NUDATSat 1 42787U 17036Y 18032.39936423 .00001452 00000-0 67085-4 0 9990 2 42787 097.4211 094.3770 0011961 184.8558 175.2564 15.21731729033713 SUCHAI 1 1 42788U 17036Z 18032.41528574 .00001164 00000-0 54735-4 0 9996 2 42788 097.4207 094.3510 0011986 184.8296 175.2827 15.21519403033947 SKCUBE 1 42789U 17036AA 18032.14954085 .00001041 00000-0 49293-4 0 9994 2 42789 097.4206 094.0919 0011787 185.6282 174.4823 15.21508521033823 VZLUSAT 1 1 42790U 17036AB 18032.39102539 .00001393 00000-0 64440-4 0 9993 2 42790 097.4207 094.3770 0011522 184.9402 175.1722 15.21762557033868 VENTA 1 1 42791U 17036AC 18032.20233063 .00001040 00000-0 49166-4 0 9998 2 42791 097.4205 094.1723 0011394 185.8921 174.2182 15.21578060033826 Robusta 1B 1 42792U 17036AD 18032.45938143 .00001088 00000-0 51172-4 0 9999 2 42792 097.4204 094.4342 0011368 185.3546 174.7570 15.21644804033887 D-SAT 1 42794U 17036AF 18032.79960166 .00000150 00000-0 18673-4 0 9996 2 42794 97.6120 92.4336 0127552 13.3604 347.0939 14.90772935 33557 BIRD-J 1 42820U 98067MU 18032.27195631 .00015604 00000-0 17854-3 0 9998 2 42820 051.6381 329.5651 0003082 033.8864 326.2326 15.62335015032592 BIRD-G 1 42821U 98067MV 18032.22654283 .00015578 00000-0 18013-3 0 9995 2 42821 51.6379 330.0121 0003094 36.2376 323.8827 15.62063819 32541 BIRD-M 1 42822U 98067MW 18032.79831661 .00015075 00000-0 17372-3 0 9994 2 42822 51.6381 327.0827 0003167 40.7955 319.3276 15.62182833 32634 BIRD-B 1 42823U 98067MX 18032.28793103 .00016449 00000-0 18883-3 0 9991 2 42823 51.6388 329.6831 0006198 48.0379 312.1143 15.62191232 32551 BIRD-N 1 42824U 98067MY 18032.23483687 .00016004 00000-0 18474-3 0 9993 2 42824 051.6393 330.0864 0006072 048.5012 311.6502 15.62071533032565 TechnoSat 1 42829U 17042E 18032.84874897 .00000037 00000-0 92613-5 0 9994 2 42829 97.6074 300.2145 0012874 292.4234 67.5620 14.90761679 30170 Mayak 1 42830U 17042F 18032.82452868 .00000703 00000-0 76319-4 0 9998 2 42830 97.6082 300.2626 0013165 290.3723 69.6082 14.91093748 30169 OBJECT MZ 1 42910U 98067MZ 18032.26363778 .00012160 00000-0 15197-3 0 9998 2 42910 51.6377 331.7475 0007332 65.3821 294.7935 15.60257386 26131 OBJECT NA 1 42911U 98067NA 18032.82016216 .00013993 00000-0 17092-3 0 9994 2 42911 51.6387 328.7398 0006870 63.8854 296.2846 15.60715474 26201 OBJECT NB 1 42912U 98067NB 18032.84758280 .00012491 00000-0 15535-3 0 9993 2 42912 51.6385 328.8876 0006394 75.3973 284.7729 15.60361589 26221 OBJECT NC 1 42913U 98067NC 18032.41524814 .00023866 00000-0 25609-3 0 9992 2 42913 051.6374 329.0102 0005467 083.6139 276.5478 15.63654984026183 OBJECT ND 1 42914U 98067ND 18032.80211377 .00011750 00000-0 14832-3 0 9998 2 42914 51.6389 329.3658 0006289 69.6469 290.5200 15.60039358 26203 QIKCOM-1 1 42983U 98067NF 18032.75163426 .00002500 00000-0 43273-4 0 9994 2 42983 51.6444 333.3652 0004957 65.9889 15.9391 15.55264155 15134 AO-91 1 43017U 17073E 18032.81041506 .00000949 00000-0 80281-4 0 9997 2 43017 97.6990 329.6730 0260387 352.6153 7.1253 14.77875809 11116 EcAMSat 1 43019U 98067NG 18032.79797951 .00004381 00000-0 69692-4 0 9997 2 43019 51.6412 333.1009 0005555 36.5851 323.5518 15.55589341 97464 PICSAT 1 43131U 18004W 18032.12301818 .00001482 00000-0 67517-4 0 9998 2 43131 097.5529 094.3360 0009332 205.9609 154.1160 15.22262949003018 AO-92 1 43137U 18004AC 18032.12107531 .00000830 00000-0 39033-4 0 9998 2 43137 97.5529 94.3387 0008846 208.0413 152.0347 15.22397473 3003 TianYi 2 1 43155U 18008A 18032.75570190 .00000983 00000-0 63751-4 0 9999 2 43155 97.5387 109.4624 0016657 248.1016 229.0242 15.10322773 2040 2018-008C 1 43157U 18008C 18031.70257464 -.00001625 00000-0 -97348-4 0 9996 2 43157 97.5416 108.4270 0014291 242.7049 234.7165 15.09482575 1882 2018-008D 1 43158U 18008D 18032.76280892 .00000764 00000-0 51607-4 0 9994 2 43158 97.5399 109.4534 0012762 237.8181 237.5129 15.09492757 2021 /EX